Location: Unspecified
(48.5670°N, 0.0000°E)
Time: 00:30:27
(UTC+00:00)

Transit 2A - All Passes

Search period start: 21 July 2019 00:00
Search period end: 31 July 2019 00:00
Orbit: 594 x 964 km, 66.7° (Epoch: 20 July)

Date Brightness Start Highest point End Pass type
(mag) Time Alt. Az. Time Alt. Az. Time Alt. Az.
21 Jul - 01:17:30 10° NNW 01:22:49 53° NE 01:27:33 10° SE visible
21 Jul - 03:01:22 10° NW 03:05:38 26° WSW 03:09:34 10° SSW visible
21 Jul - 16:01:03 10° SSE 16:05:49 23° ESE 16:10:25 10° ENE daylight
21 Jul - 17:42:12 10° SW 17:48:33 81° NW 17:54:33 10° NE daylight
21 Jul - 19:27:40 10° W 19:32:39 25° NNW 19:37:22 10° NNE daylight
21 Jul - 21:15:31 10° NNW 21:18:00 13° N 21:20:25 10° NNE visible
21 Jul - 23:00:34 10° NNW 23:03:44 15° NNE 23:06:45 10° NE visible
22 Jul - 00:43:26 10° NNW 00:48:33 40° NE 00:53:09 10° ESE visible
22 Jul - 02:26:56 10° NW 02:31:44 37° WSW 02:36:04 10° S visible
22 Jul - 15:28:13 10° SE 15:31:57 16° ESE 15:35:36 10° ENE daylight
22 Jul - 17:08:06 10° SSW 17:14:26 79° ESE 17:20:25 10° NE daylight
22 Jul - 18:52:53 10° W 18:58:15 30° NW 19:03:20 10° NNE daylight
22 Jul - 20:40:31 10° NW 20:43:24 14° NNW 20:46:11 10° NNE visible
22 Jul - 22:26:26 10° NNW 22:29:10 13° NNE 22:31:46 10° NE visible
23 Jul - 00:09:23 10° NNW 00:14:14 31° NE 00:18:38 10° ESE visible
23 Jul - 01:52:38 10° NW 01:57:45 54° WSW 02:02:20 10° SSE visible
23 Jul - 14:56:19 10° ESE 14:58:09 11° E 14:59:57 10° E daylight
23 Jul - 16:34:09 10° SSW 16:40:21 59° ESE 16:46:14 10° NE daylight
23 Jul - 18:18:11 10° WSW 18:23:55 37° NW 18:29:19 10° NNE daylight
23 Jul - 20:05:29 10° NW 20:08:50 15° NNW 20:12:03 10° NNE daylight
23 Jul - 21:52:13 10° NNW 21:54:34 12° N 21:56:50 10° NNE visible
23 Jul - 23:35:22 10° NNW 23:39:51 25° NE 23:43:59 10° E visible
24 Jul - 01:18:25 10° NW 01:23:42 77° WSW 01:28:26 10° SSE visible
24 Jul - 03:04:24 10° W 03:05:47 11° W 03:07:07 10° WSW visible
24 Jul - 16:00:23 10° S 16:06:19 44° ESE 16:11:58 10° NE daylight
24 Jul - 17:43:37 10° WSW 17:49:38 46° NW 17:55:16 10° NNE daylight
24 Jul - 19:30:26 10° WNW 19:34:17 17° NNW 19:37:58 10° NNE daylight
24 Jul - 21:17:51 10° NNW 21:19:57 12° N 21:22:00 10° NNE visible
24 Jul - 23:01:20 10° NNW 23:05:25 21° NNE 23:09:13 10° ENE visible
25 Jul - 00:44:16 10° NNW 00:49:36 78° NE 00:54:21 10° SE visible
25 Jul - 02:28:51 10° WNW 02:32:00 17° WSW 02:34:57 10° SW visible
25 Jul - 15:26:49 10° S 15:32:20 33° ESE 15:37:38 10° NE daylight
25 Jul - 17:09:12 10° SW 17:15:23 59° NW 17:21:13 10° NNE daylight
25 Jul - 18:55:26 10° WNW 18:59:48 20° NNW 19:03:56 10° NNE daylight
25 Jul - 20:43:15 10° NNW 20:45:20 12° N 20:47:21 10° NNE visible
25 Jul - 22:27:18 10° NNW 22:30:57 18° NNE 22:34:21 10° ENE visible
26 Jul - 00:10:09 10° NNW 00:15:25 56° NE 00:20:08 10° SE visible
26 Jul - 01:54:06 10° WNW 01:58:09 24° WSW 02:01:54 10° SSW visible
26 Jul - 14:53:30 10° SSE 14:58:24 24° ESE 15:03:08 10° ENE daylight
26 Jul - 16:34:53 10° SW 16:41:12 76° NW 16:47:08 10° NNE daylight
26 Jul - 18:20:31 10° W 18:25:21 23° NNW 18:29:54 10° NNE daylight
26 Jul - 20:08:26 10° NNW 20:10:43 12° N 20:12:56 10° NNE daylight
26 Jul - 21:53:15 10° NNW 21:56:25 15° NNE 21:59:25 10° NE visible
26 Jul - 23:36:05 10° NNW 23:41:10 42° NE 23:45:45 10° ESE visible
27 Jul - 01:19:38 10° NW 01:24:16 34° WSW 01:28:29 10° S visible
27 Jul - 14:20:34 10° SE 14:24:32 18° ESE 14:28:22 10° ENE daylight
27 Jul - 16:00:45 10° SSW 16:07:04 83° ESE 16:13:01 10° NE daylight
27 Jul - 17:45:41 10° W 17:50:56 28° NW 17:55:53 10° NNE daylight
27 Jul - 19:33:27 10° NW 19:36:07 13° NNW 19:38:41 10° NNE daylight
27 Jul - 21:19:10 10° NNW 21:21:51 13° NNE 21:24:27 10° NE visible
27 Jul - 23:02:02 10° NNW 23:06:52 32° NE 23:11:15 10° ESE visible
28 Jul - 00:45:18 10° NW 00:50:18 49° WSW 00:54:48 10° S visible
28 Jul - 13:48:22 10° SE 13:50:42 12° ESE 13:53:00 10° E daylight
28 Jul - 15:26:46 10° SSW 15:32:58 63° ESE 15:38:50 10° NE daylight
28 Jul - 17:10:58 10° WSW 17:16:35 35° NW 17:21:52 10° NNE daylight
28 Jul - 18:58:24 10° NW 19:01:32 14° NNW 19:04:34 10° NNE daylight
28 Jul - 20:45:00 10° NNW 20:47:16 12° N 20:49:28 10° NNE visible
28 Jul - 22:28:01 10° NNW 22:32:30 26° NE 22:36:37 10° E visible
29 Jul - 00:11:05 10° NW 00:16:16 71° WSW 00:20:56 10° SSE visible
29 Jul - 14:52:57 10° S 14:58:56 47° ESE 15:04:36 10° NE daylight
29 Jul - 16:36:23 10° WSW 16:42:17 43° NW 16:47:49 10° NNE daylight
29 Jul - 18:23:20 10° WNW 18:27:00 16° NNW 18:30:29 10° NNE daylight
29 Jul - 20:10:41 10° NNW 20:12:40 12° N 20:14:36 10° NNE daylight
29 Jul - 21:53:59 10° NNW 21:58:05 21° NNE 22:01:52 10° E visible
29 Jul - 23:36:55 10° NW 23:42:11 83° NE 23:46:53 10° SE visible
30 Jul - 01:21:43 10° WNW 01:24:30 15° WSW 01:27:09 10° SW visible
30 Jul - 14:19:20 10° S 14:24:57 35° ESE 14:30:16 10° NE daylight
30 Jul - 16:01:55 10° SW 16:08:03 55° NW 16:13:47 10° NNE daylight
30 Jul - 17:48:19 10° WNW 17:52:29 19° NNW 17:56:28 10° NNE daylight
30 Jul - 19:36:08 10° NNW 19:38:02 12° N 19:39:54 10° NNE daylight
30 Jul - 21:19:58 10° NNW 21:23:37 18° NNE 21:27:01 10° ENE visible
30 Jul - 23:02:48 10° NNW 23:08:01 60° NE 23:12:41 10° SE visible
